1500829201.22,35072,22.81,74276.0,9.23,9.11,9.03,0,*75
1500829202.43,35073,22.81,74274.3,9.25,8.29,8.29,0,*71
1500829203.64,35074,22.81,74276.0,9.23,7.79,7.79,0,*70
1500829204.89,35075,22.81,74276.5,9.23,8.33,8.33,0,*71
1500829206.14,35076,22.81,74274.8,9.19,8.29,8.29,0,*7B
1500829207.37,35077,22.81,74278.0,9.21,8.55,8.47,0,*72
1500829208.6,35078,22.81,74278.8,9.19,9.01,9.07,0,*73
1500829209.81,35079,22.81,74278.3,9.19,9.25,9.25,0,*74
1500829210.99,35080,22.81,74276.8,9.21,9.25,9.25,0,*79
1500829212.16,35081,22.81,74276.3,9.21,9.29,9.29,0,*78
1500829213.39,35082,22.81,74278.8,9.21,8.93,8.89,0,*70
1500829214.62,35083,22.81,74282.5,9.21,8.59,8.59,0,*7A
1500829215.85,35084,22.81,74280.3,9.21,8.93,9.01,0,*77
1500829217.04,35085,22.81,74282.5,9.21,9.03,9.03,0,*7C
1500829218.21,35086,22.81,74278.8,9.21,8.69,8.61,0,*77
1500829219.42,35087,22.81,74282.8,9.21,8.45,8.37,0,*7B
1500829220.65,35088,22.81,74280.3,9.19,8.55,8.61,0,*7D
1500829221.88,35089,22.81,74282.0,9.19,8.75,8.87,0,*76
1500829223.06,35090,22.81,74282.5,9.21,8.61,8.69,0,*70
1500829224.23,35091,22.81,74282.3,9.21,8.61,8.69,0,*71
1500829225.41,35092,22.81,74278.3,9.21,8.61,8.69,0,*72
1500829226.61,35093,22.81,74276.8,9.21,8.61,8.59,0,*70
1500829227.8,35094,22.81,74282.5,9.19,7.97,7.97,0,*77
1500829229.01,35095,22.81,74282.0,9.19,8.23,8.23,0,*76
1500829230.24,35096,22.81,74278.8,9.21,8.33,8.33,0,*7E
1500829231.47,35097,22.81,74276.8,9.19,8.09,8.13,0,*7F
1500829232.69,35098,22.81,74276.0,9.17,8.29,8.37,0,*7A
1500829233.88,35099,22.81,74274.0,9.17,8.15,8.27,0,*75
1500829235.13,35100,22.81,74278.3,9.19,8.51,8.51,0,*7B
1500829236.38,35101,22.81,74272.0,9.15,8.51,8.41,0,*77
1500829237.61,35102,22.81,74276.8,9.15,8.27,8.29,0,*7B
1500829238.8,35103,22.81,74274.8,9.15,7.97,8.09,0,*7C
1500829240.06,35104,22.81,74274.3,9.15,8.41,8.41,0,*73
1500829241.26,35105,22.81,74276.3,9.15,8.09,8.09,0,*72
1500829242.48,35106,22.81,74278.0,9.15,8.27,8.29,0,*7F
1500829243.69,35107,22.81,74274.3,9.13,8.37,8.45,0,*73
1500829244.94,35108,22.81,74272.5,9.15,8.93,8.93,0,*7F
1500829246.19,35109,22.81,74276.0,9.15,8.41,8.41,0,*7E
1500829247.44,35110,22.81,74276.3,9.15,8.47,8.41,0,*70
1500829248.65,35111,22.81,74272.3,9.15,8.15,8.09,0,*7A
1500829249.84,35112,22.81,74274.8,9.13,8.27,8.27,0,*72
1500829251.09,35113,22.81,74274.8,9.15,8.37,8.37,0,*75
1500829252.32,35114,22.81,74276.3,9.13,8.33,8.33,0,*74
1500829253.55,35115,22.81,74274.0,9.11,7.79,7.87,0,*76
1500829254.73,35116,22.81,74274.0,9.13,8.15,8.15,0,*76
1500829255.97,35117,22.81,74268.3,9.11,8.23,8.29,0,*7F
1500829257.2,35118,22.88,74274.8,9.09,8.41,8.41,0,*73
1500829258.4,35119,22.81,74270.8,9.09,8.45,8.47,0,*70
1500829259.58,35120,22.81,74270.0,9.09,8.45,8.45,0,*78
1500829260.84,35121,22.81,74274.8,9.11,8.41,8.33,0,*75
1500829262.05,35122,22.81,74272.8,9.09,8.41,8.45,0,*7E
1500829263.23,35123,22.81,74268.8,9.09,8.23,8.19,0,*72
1500829264.49,35124,22.81,74270.3,9.11,8.41,8.41,0,*75
1500829265.7,35125,22.81,74272.5,9.11,8.45,8.45,0,*74
1500829266.93,35126,22.81,74268.5,9.11,8.41,8.45,0,*73
1500829268.19,35127,22.81,74274.8,9.11,8.47,8.55,0,*75
1500829269.43,35128,22.81,74272.5,9.09,8.55,8.55,0,*70
1500829270.66,35129,22.81,74276.5,9.09,7.87,7.87,0,*71
1500829271.9,35130,22.81,74272.5,9.05,7.87,7.87,0,*75
1500829273.15,35131,22.81,74276.5,9.05,7.77,7.83,0,*7F
1500829274.4,35132,22.81,74276.0,9.05,7.77,7.77,0,*77
1500829275.62,35133,22.81,74274.0,9.05,7.65,7.55,0,*75
1500829276.79,35134,22.81,74274.8,9.03,7.45,7.45,0,*77
1500829277.96,35135,22.81,74272.5,9.03,7.45,7.45,0,*76
1500829279.21,35136,22.81,74278.8,9.01,7.91,7.83,0,*74
1500829280.43,35137,22.81,74280.3,9.01,7.79,7.83,0,*73
1500829281.68,35138,22.81,74280.3,9.01,8.33,8.47,0,*7A
1500829282.9,35139,22.81,74280.8,9.01,8.23,8.27,0,*7C
1500829284.1,35140,22.81,74278.5,9.01,8.27,8.23,0,*72
1500829285.36,35141,22.81,74276.0,9.01,8.13,8.13,0,*77
1500829286.53,35142,22.81,74276.5,8.99,8.23,8.23,0,*74
1500829287.79,35143,22.81,74276.0,9.01,8.37,8.41,0,*74
1500829289.01,35144,22.81,74278.3,9.01,8.61,8.71,0,*73
1500829290.18,35145,22.81,74278.3,9.03,8.79,8.79,0,*71
1500829291.43,35146,22.81,74282.3,9.01,8.51,8.59,0,*78
1500829292.68,35147,22.81,74278.0,9.01,8.51,8.51,0,*71
1500829293.91,35148,22.81,74274.5,9.03,8.33,8.37,0,*78
1500829295.16,35149,22.81,74278.0,9.01,8.37,8.37,0,*7F
1500829296.36,35150,22.81,74272.3,9.01,8.05,8.01,0,*73
1500829297.56,35151,22.81,74276.8,9.01,8.05,8.05,0,*76
1500829298.81,35152,22.81,74274.0,9.01,8.37,8.47,0,*72
1500829300.04,35153,22.81,74270.3,9.01,8.51,8.61,0,*77
1500829301.29,35154,22.81,74270.8,9.01,8.37,8.47,0,*74
1500829302.54,35155,22.81,74270.5,9.01,8.37,8.41,0,*73
1500829303.77,35156,22.81,74268.5,9.01,8.13,8.05,0,*76
1500829304.98,35157,22.81,74264.0,9.01,8.01,8.01,0,*70
1500829306.2,35158,22.81,74264.8,8.99,7.69,7.69,0,*7F
1500829307.37,35159,22.81,74270.5,8.99,7.59,7.55,0,*72
1500829308.55,35160,22.81,74270.0,8.99,7.55,7.59,0,*78
1500829309.81,35161,22.81,74266.8,8.97,7.77,7.77,0,*7B
1500829311.06,35162,22.81,74264.0,8.97,7.77,7.87,0,*77
1500829312.27,35163,22.81,74266.3,8.99,7.87,7.91,0,*70
1500829313.47,35164,22.81,74266.3,8.97,8.01,8.01,0,*7E
1500829314.73,35165,22.81,74268.0,8.97,7.91,7.77,0,*77
1500829315.94,35166,22.81,74266.8,8.95,7.55,7.61,0,*79
1500829317.14,35167,22.81,74266.8,8.95,7.47,7.51,0,*78
1500829318.36,35168,22.81,74260.0,8.95,7.61,7.65,0,*74
1500829319.56,35169,22.81,74260.0,8.95,7.83,8.05,0,*70
1500829320.78,35170,22.81,74264.8,8.93,8.05,8.13,0,*78
1500829322.01,35171,22.81,74262.3,8.93,8.23,8.29,0,*74
1500829323.22,35172,22.81,74264.5,8.93,8.27,8.27,0,*7D
1500829324.43,35173,22.81,74260.0,8.95,8.29,8.41,0,*74
1500829325.66,35174,22.81,74258.5,8.95,8.41,8.41,0,*7D
1500829326.86,35175,22.81,74260.0,8.95,8.45,8.51,0,*79
1500829328.1,35176,22.81,74256.5,8.93,8.29,8.37,0,*76
1500829329.34,35177,22.88,74260.8,8.95,8.55,8.55,0,*7E
1500829330.56,35178,22.81,74258.3,8.95,8.41,8.41,0,*71
1500829331.78,35179,22.81,74256.5,8.95,8.29,8.29,0,*70
1500829332.98,35180,22.81,74262.0,8.95,8.27,8.29,0,*78
1500829334.15,35181,22.81,74260.0,8.95,8.19,8.19,0,*77
1500829335.37,35182,22.81,74260.3,8.95,8.29,8.29,0,*74
1500829336.59,35183,22.81,74262.8,8.95,8.29,8.33,0,*7E
1500829337.76,35184,22.81,74262.8,8.95,8.45,8.45,0,*72
1500829338.96,35185,22.81,74262.3,8.93,8.27,8.23,0,*71
1500829340.21,35186,22.81,74264.3,8.97,8.37,8.37,0,*72
1500829341.47,35187,22.81,74260.5,8.97,8.47,8.55,0,*70
1500829342.7,35188,22.81,74260.3,8.97,8.13,8.19,0,*76
1500829343.88,35189,22.81,74264.5,8.95,8.15,8.15,0,*7F
1500829345.12,35190,22.81,74260.5,8.93,8.29,8.41,0,*7F
1500829346.34,35191,22.88,74264.8,8.95,8.51,8.51,0,*76
1500829347.51,35192,22.81,74266.3,8.99,8.65,8.69,0,*75
1500829348.76,35193,22.81,74264.8,8.97,8.89,8.97,0,*79
1500829349.96,35194,22.81,74264.5,8.97,8.79,8.87,0,*70
1500829351.18,35195,22.81,74260.5,8.97,8.75,8.79,0,*7C
1500829352.43,35196,22.81,74264.5,8.97,8.89,8.89,0,*73
1500829353.64,35197,22.81,74264.8,8.99,8.87,8.89,0,*72
1500829354.89,35198,22.81,74264.3,8.97,8.89,8.97,0,*72
1500829356.1,35199,22.81,74264.0,8.99,8.75,8.75,0,*72
1500829357.3,35200,22.81,74270.3,8.99,8.75,8.79,0,*7D
1500829358.52,35201,22.81,74270.5,8.99,8.89,8.89,0,*70
1500829359.75,35202,22.81,74268.5,9.01,8.79,8.71,0,*7B
1500829361.0,35203,22.81,74268.3,9.01,8.37,8.37,0,*72
1500829362.23,35204,22.81,74270.5,8.99,8.13,8.13,0,*75
1500829363.46,35205,22.81,74270.8,9.01,8.05,8.13,0,*73
1500829364.71,35206,22.81,74274.0,9.01,8.33,8.37,0,*73
1500829365.94,35207,22.81,74274.8,9.03,8.41,8.51,0,*75
1500829367.19,35208,22.81,74274.8,9.01,8.37,8.41,0,*78
1500829368.44,35209,22.81,74272.0,9.01,8.47,8.51,0,*7F
1500829369.67,35210,22.81,74274.3,8.99,8.47,8.55,0,*73
1500829370.87,35211,22.81,74270.5,8.99,8.23,8.29,0,*7B
1500829372.12,35212,22.81,74270.0,8.97,7.77,7.77,0,*7C
1500829373.3,35213,22.81,74266.8,8.99,8.09,8.19,0,*72
1500829374.53,35214,22.81,74268.8,8.99,8.47,8.55,0,*77
1500829375.75,35215,22.81,74272.5,8.99,8.33,8.33,0,*75
1500829376.92,35216,22.81,74270.0,8.99,7.79,7.79,0,*76
1500829378.12,35217,22.81,74266.3,8.99,8.13,8.23,0,*74
1500829379.37,35218,22.81,74270.0,8.97,7.91,7.91,0,*76
1500829380.62,35219,22.81,74262.5,8.97,8.29,8.33,0,*7C
1500829381.86,35220,22.81,74262.8,8.97,7.87,7.91,0,*7A
1500829383.06,35221,22.81,74262.8,8.97,7.97,8.01,0,*7C
1500829384.31,35222,22.81,74266.8,8.97,8.33,8.33,0,*7F
1500829385.53,35223,22.81,74264.3,8.97,8.69,8.75,0,*73
1500829386.72,35224,22.81,74266.5,8.97,8.69,8.69,0,*79
1500829387.92,35225,22.81,74270.0,8.97,8.69,8.79,0,*79
1500829389.14,35226,22.81,74270.8,8.97,8.75,8.79,0,*77
1500829390.36,35227,22.81,74270.0,8.97,8.75,8.79,0,*76
1500829391.56,35228,22.81,74268.0,8.99,8.75,8.87,0,*76
1500829392.75,35229,22.81,74270.8,8.99,8.75,8.87,0,*77
1500829393.95,35230,22.81,74266.3,8.99,8.75,8.87,0,*7F
1500829395.17,35231,22.81,74268.8,8.99,8.89,8.97,0,*7C
1500829396.37,35232,22.81,74264.8,8.99,8.87,8.97,0,*71
1500829397.57,35233,22.81,74268.8,9.01,8.69,8.79,0,*70
1500829398.8,35234,22.81,74266.5,9.01,8.79,8.89,0,*79
1500829400.05,35235,22.81,74268.0,9.01,8.93,8.93,0,*77
1500829401.28,35236,22.81,74270.8,9.03,8.93,9.01,0,*7C
1500829402.49,35237,22.81,74268.3,9.01,8.79,8.83,0,*70
1500829403.71,35238,22.81,74268.3,9.03,8.51,8.59,0,*70
1500829404.91,35239,22.81,74268.0,9.03,8.71,8.83,0,*74
1500829406.08,35240,22.81,74264.5,9.03,8.83,8.83,0,*77
1500829407.31,35241,22.81,74268.3,9.01,8.83,8.93,0,*75
1500829408.49,35242,22.81,74268.8,9.03,8.61,8.61,0,*75
1500829409.71,35243,22.81,74270.5,9.03,8.47,8.51,0,*73
1500829410.93,35244,22.81,74264.8,9.05,8.75,8.83,0,*7C
1500829412.13,35245,22.81,74268.0,9.03,8.71,8.83,0,*7F
1500829413.35,35246,22.81,74268.3,9.03,8.89,8.93,0,*7A
1500829414.55,35247,22.81,74270.5,9.03,8.93,9.03,0,*78
1500829415.73,35248,22.81,74266.3,9.03,9.03,9.03,0,*7F
1500829416.91,35249,22.81,74270.0,9.03,9.03,9.03,0,*7E
1500829418.11,35250,22.81,74268.3,9.03,8.71,8.79,0,*7E
1500829419.28,35251,22.81,74264.5,9.03,8.83,8.83,0,*77
1500829420.52,35252,22.81,74268.5,9.05,8.97,8.97,0,*72
1500829421.73,35253,22.81,74270.5,9.09,9.07,9.15,0,*7C
1500829422.97,35254,22.81,74264.8,9.05,8.93,8.97,0,*70
1500829424.21,35255,22.81,74268.3,9.05,8.97,8.97,0,*75
1500829425.45,35256,22.81,74270.5,9.05,9.11,9.11,0,*76
1500829426.66,35257,22.81,74266.3,9.09,9.07,9.15,0,*78
1500829427.87,35258,22.81,74270.5,9.09,9.01,9.07,0,*72
1500829429.07,35259,22.81,74266.5,9.09,9.07,9.15,0,*76
1500829430.26,35260,22.81,74264.0,9.09,9.07,9.07,0,*7F
1500829431.47,35261,22.81,74266.5,9.09,9.11,9.07,0,*79
1500829432.72,35262,22.81,74268.0,9.11,9.15,9.15,0,*74
1500829433.97,35263,22.81,74268.0,9.11,9.15,9.15,0,*75
1500829435.18,35264,22.81,74268.3,9.13,9.19,9.25,0,*7F
1500829436.43,35265,22.81,74270.8,9.11,8.89,8.89,0,*73
1500829437.67,35266,22.88,74272.8,9.11,8.87,8.89,0,*7E
1500829438.9,35267,22.81,74270.0,9.11,8.79,8.75,0,*7D
1500829440.13,35268,22.81,74268.0,9.11,8.55,8.65,0,*7D
1500829441.36,35269,22.81,74268.0,9.11,8.75,8.79,0,*73
1500829442.59,35270,22.81,74270.0,9.11,8.59,8.65,0,*78
1500829443.82,35271,22.81,74268.3,9.11,8.45,8.47,0,*74
1500829445.05,35272,22.81,74272.0,9.11,8.41,8.45,0,*71
1500829446.29,35273,22.81,74268.0,9.11,8.59,8.69,0,*77
1500829447.52,35274,22.81,74268.8,9.11,8.59,8.65,0,*7C
1500829448.75,35275,22.81,74268.8,9.11,8.59,8.69,0,*71
1500829449.98,35276,22.81,74268.0,9.11,8.75,8.79,0,*7D
1500829451.21,35277,22.81,74272.3,9.11,8.79,8.89,0,*7F
1500829452.47,35278,22.81,74270.5,9.11,8.89,9.01,0,*7E
1500829453.73,35279,22.81,74268.3,9.11,9.01,9.01,0,*7E
1500829454.92,35280,22.81,74270.0,9.09,8.87,8.87,0,*71
1500829456.15,35281,22.81,74272.5,9.11,8.55,8.65,0,*7A
1500829457.38,35282,22.81,74268.0,9.11,7.91,7.97,0,*7C
1500829458.6,35283,22.81,74270.0,9.11,7.79,7.79,0,*7B
1500829459.83,35284,22.81,74268.3,9.09,7.69,7.69,0,*75
1500829461.02,35285,22.81,74268.0,9.05,7.97,7.97,0,*78
1500829462.24,35286,22.81,74264.0,9.05,7.95,7.97,0,*79
1500829463.44,35287,22.81,74266.3,9.05,8.09,8.09,0,*7A
1500829464.64,35288,22.81,74266.8,9.05,8.19,8.27,0,*78
1500829465.84,35289,22.81,74268.3,9.03,7.91,8.01,0,*74
1500829467.04,35290,22.81,74264.8,9.03,8.13,8.15,0,*7C
1500829468.25,35291,22.81,74268.0,9.01,8.23,8.23,0,*79
1500829469.48,35292,22.81,74268.5,9.03,7.91,7.95,0,*7C
1500829470.71,35293,22.81,74270.5,9.01,8.13,8.15,0,*7D
1500829471.91,35294,22.81,74270.0,9.01,8.15,8.23,0,*79
1500829473.12,35295,22.81,74268.8,9.01,8.23,8.27,0,*79
1500829474.33,35296,22.81,74268.3,9.01,8.15,8.15,0,*7E
1500829475.53,35297,22.81,74270.0,8.99,8.13,8.23,0,*7C
1500829476.7,35298,22.81,74270.0,8.99,8.01,8.09,0,*78
1500829477.92,35299,22.81,74270.0,8.97,8.09,8.13,0,*74
1500829479.18,35300,22.81,74268.8,9.01,8.33,8.37,0,*74
1500829480.4,35301,22.81,74268.8,8.99,8.37,8.37,0,*71
1500829481.6,35302,22.81,74268.0,8.99,8.09,8.13,0,*79
1500829482.83,35303,22.81,74268.8,8.97,8.13,8.19,0,*77
1500829484.06,35304,22.81,74268.8,8.97,8.09,8.13,0,*71
1500829485.28,35305,22.81,74268.0,8.99,8.29,8.37,0,*7A
1500829486.5,35306,22.81,74268.3,8.97,8.13,8.23,0,*7B
1500829487.73,35307,22.81,74270.0,8.97,8.13,8.23,0,*7A
1500829488.98,35308,22.81,74270.3,8.97,8.13,8.13,0,*76
1500829490.18,35309,22.81,74268.3,8.97,8.01,7.97,0,*77
1500829491.4,35310,22.81,74270.5,8.99,8.29,8.37,0,*7E
1500829492.59,35311,22.81,74266.5,8.97,7.97,8.09,0,*76
1500829493.84,35312,22.81,74270.3,8.97,7.87,7.91,0,*7A
1500829495.06,35313,22.81,74270.5,8.95,7.87,7.95,0,*7D
1500829496.25,35314,22.81,74268.0,8.95,8.27,8.27,0,*79
1500829497.45,35315,22.81,74268.8,8.95,8.27,8.29,0,*76
1500829498.64,35316,22.81,74270.8,8.95,8.27,8.29,0,*75
1500829499.83,35317,22.81,74270.8,8.95,8.19,8.27,0,*77
1500829501.01,35318,22.81,74270.3,8.95,8.19,8.27,0,*78
1500829502.22,35319,22.81,74268.3,8.95,8.29,8.29,0,*74
1500829503.48,35320,22.81,74268.0,8.97,8.47,8.55,0,*7F
1500829504.73,35321,22.81,74270.0,8.93,8.41,8.59,0,*70
1500829505.94,35322,22.81,74268.3,8.95,8.27,8.33,0,*79
1500829507.17,35323,22.81,74268.3,8.95,8.41,8.55,0,*78
1500829508.33,35324,22.81,74266.3,8.95,8.61,8.65,0,*7E
1500829509.53,35325,22.81,74270.3,8.95,8.51,8.65,0,*7C
1500829510.74,35326,22.81,74270.8,8.95,8.29,8.41,0,*76
1500829511.99,35327,22.81,74268.3,8.97,8.29,8.37,0,*74
1500829513.21,35328,22.81,74268.0,8.95,8.29,8.51,0,*79
1500829514.39,35329,22.81,74268.0,8.95,8.09,8.27,0,*7B
1500829515.56,35330,22.81,74268.0,8.95,8.05,8.19,0,*72
1500829516.74,35331,22.81,74270.8,8.95,8.15,8.27,0,*7F
1500829517.94,35332,22.81,74266.8,8.95,8.41,8.61,0,*7F
1500829519.16,35333,22.81,74264.5,8.95,8.29,8.29,0,*7C
1500829520.36,35334,22.81,74264.0,8.97,8.23,8.45,0,*79
1500829521.56,35335,22.81,74264.8,8.95,8.51,8.65,0,*7D
1500829522.78,35336,22.81,74266.5,8.95,8.55,8.75,0,*7B
1500829523.98,35337,22.81,74264.0,8.95,8.71,8.83,0,*75
1500829525.2,35338,22.81,74264.3,8.95,8.55,8.75,0,*75
1500829526.42,35339,22.81,74266.3,8.95,8.51,8.71,0,*74
1500829527.65,35340,22.81,74264.8,8.99,8.75,8.89,0,*77
1500829528.89,35341,22.81,74262.3,8.97,8.75,8.89,0,*78
1500829530.11,35342,22.81,74264.0,8.99,8.89,8.97,0,*79
1500829531.31,35343,22.81,74266.5,8.99,8.87,8.97,0,*76
1500829532.53,35344,22.81,74266.5,8.99,8.89,8.97,0,*7F
1500829533.73,35345,22.81,74264.3,8.99,8.89,9.03,0,*72
1500829534.93,35346,22.81,74264.0,8.99,8.59,8.79,0,*70
1500829536.12,35347,22.81,74264.3,8.99,8.65,8.75,0,*72
1500829537.32,35348,22.81,74266.3,8.99,8.79,8.89,0,*73
1500829538.55,35349,22.81,74264.0,8.99,8.89,9.01,0,*7C
1500829539.8,35350,22.81,74266.5,9.01,8.93,9.01,0,*7F
1500829541.0,35351,22.81,74266.0,9.03,8.71,8.83,0,*7B
1500829542.25,35352,22.81,74264.5,9.01,8.33,8.37,0,*73
1500829543.5,35353,22.81,74266.5,9.01,8.33,8.47,0,*75
1500829544.73,35354,22.81,74264.8,9.01,8.51,8.61,0,*72
1500829545.93,35355,22.81,74266.8,9.01,8.61,8.79,0,*79
1500829547.18,35356,22.81,74264.0,9.01,8.37,8.59,0,*7B
1500829548.41,35357,22.81,74268.0,9.01,8.79,8.89,0,*7D
1500829549.64,35358,22.81,74264.0,9.01,8.83,8.89,0,*77
1500829550.84,35359,22.81,74264.8,9.01,8.61,8.79,0,*75
1500829552.04,35360,22.81,74262.0,9.03,8.59,8.69,0,*77
1500829553.29,35361,22.81,74270.5,9.01,8.47,8.59,0,*78
1500829554.47,35362,22.81,74266.0,9.03,8.83,8.83,0,*76
1500829555.7,35363,22.81,74268.5,9.01,8.83,8.89,0,*7F
1500829556.9,35364,22.81,74264.0,9.01,8.69,8.83,0,*76
1500829558.13,35365,22.81,74264.8,9.01,8.47,8.83,0,*7B
1500829559.38,35366,22.81,74264.8,9.01,8.37,8.89,0,*75
1500829560.6,35367,22.81,74270.0,9.03,8.37,8.89,0,*76
1500829561.8,35368,22.81,74264.5,9.03,8.33,8.79,0,*72
1500829562.97,35369,22.81,74266.5,9.03,8.05,8.69,0,*77
1500829564.16,35370,22.81,74264.3,9.03,8.01,8.59,0,*78
1500829565.37,35371,22.81,74266.0,9.03,7.79,8.33,0,*75
1500829566.62,35372,22.81,74264.0,9.05,7.95,8.55,0,*72
1500829567.84,35373,22.81,74266.3,9.05,7.83,8.45,0,*75
1500829569.06,35374,22.81,74266.3,9.05,7.97,8.55,0,*76
1500829570.31,35375,22.81,74266.3,9.05,7.73,8.37,0,*79
1500829571.56,35376,22.81,74268.0,9.05,7.83,8.55,0,*71
1500829572.81,35377,22.81,74266.3,9.05,7.77,8.41,0,*7E
1500829574.05,35378,22.81,74268.3,9.05,7.65,8.37,0,*73
1500829575.25,35379,22.81,74264.8,9.03,7.79,8.41,0,*78
1500829576.48,35380,22.81,74264.0,9.01,8.01,8.71,0,*7F
1500829577.68,35381,22.81,74266.5,9.01,8.05,8.69,0,*73
1500829578.93,35382,22.81,74264.8,9.05,7.77,8.37,0,*75
1500829580.15,35383,22.81,74266.3,9.03,7.91,8.41,0,*7B
1500829581.38,35384,22.81,74266.3,9.01,8.01,8.51,0,*79
1500829582.55,35385,22.81,74266.5,9.03,8.15,8.69,0,*74
1500829583.78,35386,22.81,74264.8,9.03,7.95,8.51,0,*7B
1500829585.0,35387,22.81,74264.8,9.05,8.05,8.55,0,*7E
1500829586.25,35388,22.81,74266.8,9.05,7.87,8.37,0,*70
1500829587.49,35389,22.81,74266.3,9.05,7.83,8.37,0,*75
1500829588.72,35390,22.81,74266.3,9.03,7.91,8.37,0,*78
1500829589.92,35391,22.81,74264.5,9.03,7.73,8.15,0,*75
1500829591.11,35392,22.81,74266.5,9.03,7.69,8.23,0,*78
1500829592.29,35393,22.81,74264.5,9.03,7.55,8.01,0,*76
1500829593.51,35394,22.81,74270.0,9.03,7.69,8.13,0,*7D
1500829594.71,35395,22.81,74264.3,9.03,7.69,8.15,0,*7A
1500829595.91,35396,22.81,74268.0,9.03,7.73,8.23,0,*77
1500829597.12,35397,22.81,74264.0,9.01,7.79,8.27,0,*7A
1500829598.37,35398,22.81,74266.8,9.01,7.91,8.33,0,*76
1500829599.6,35399,22.81,74268.0,9.01,7.83,8.27,0,*71
1500829600.79,35400,22.81,74264.8,9.03,8.05,8.41,0,*75
1500829602.02,35401,22.81,74264.8,9.01,7.73,8.23,0,*7C
1500829603.27,35402,22.81,74264.0,9.01,8.13,8.41,0,*72
1500829604.48,35403,22.81,74266.8,9.05,8.15,8.45,0,*75
1500829605.71,35404,22.81,74266.3,9.01,7.91,8.27,0,*71
1500829606.96,35405,22.81,74268.3,9.01,7.83,8.33,0,*76
1500829608.19,35406,22.81,74266.8,9.01,8.15,8.51,0,*71
1500829609.42,35407,22.81,74266.3,9.01,8.23,8.59,0,*7D
1500829610.65,35408,22.81,74264.0,9.01,8.15,8.59,0,*77
1500829611.88,35409,22.81,74266.5,9.01,8.33,8.69,0,*71
1500829613.11,35410,22.81,74264.8,9.01,8.15,8.51,0,*76
1500829614.34,35411,22.81,74264.0,9.03,7.91,8.33,0,*72
1500829615.56,35412,22.81,74264.5,9.03,7.69,8.13,0,*74
1500829616.76,35413,22.81,74266.3,9.03,7.79,8.33,0,*76
1500829617.99,35414,22.81,74264.0,9.01,7.69,8.15,0,*76
1500829619.21,35415,22.81,74266.3,9.01,7.69,8.23,0,*72
1500829620.44,35416,22.81,74266.3,9.01,7.61,8.15,0,*7C
1500829621.7,35417,22.81,74266.3,9.01,7.47,7.95,0,*7E
1500829622.89,35418,22.81,74260.8,9.03,7.33,7.83,0,*77
1500829624.06,35419,22.81,74264.3,8.99,7.55,8.09,0,*79
1500829625.26,35420,22.81,74262.3,8.99,7.41,7.91,0,*78
1500829626.45,35421,22.81,74264.5,8.97,7.45,7.97,0,*75
1500829627.63,35422,22.81,74266.0,8.99,7.55,8.09,0,*71
1500829628.8,35423,22.81,74264.0,8.99,7.45,7.97,0,*79
1500829629.99,35424,22.81,74264.0,8.97,7.45,7.97,0,*70
1500829631.17,35425,22.81,74262.5,8.99,7.59,8.19,0,*7B
1500829632.34,35426,22.81,74264.8,8.99,7.51,8.09,0,*71
1500829633.52,35427,22.81,74262.0,8.99,7.55,8.09,0,*74
1500829634.69,35428,22.81,74264.3,8.99,7.41,7.97,0,*76
1500829635.93,35429,22.81,74262.8,8.97,7.69,8.29,0,*79
1500829637.18,35430,22.81,74264.0,8.97,7.69,8.33,0,*7A
1500829638.38,35431,22.81,74264.8,9.01,7.55,8.15,0,*7E
1500829639.58,35432,22.81,74266.8,8.97,7.33,7.79,0,*76
1500829640.81,35433,22.81,74264.0,8.99,7.19,7.77,0,*7F
1500829641.98,35434,22.81,74264.5,8.99,7.45,8.01,0,*7F
1500829643.18,35435,22.81,74264.5,8.97,7.45,8.01,0,*70
1500829644.44,35436,22.81,74264.5,8.97,7.11,7.69,0,*73
1500829645.63,35437,22.81,74262.0,8.97,7.33,7.79,0,*73
1500829646.85,35438,22.81,74264.3,8.97,7.41,7.91,0,*7F
1500829648.05,35439,22.81,74260.5,8.97,7.33,7.79,0,*7D
1500829649.28,35440,22.81,74262.0,8.95,7.19,7.77,0,*77
1500829650.46,35441,22.81,74258.0,8.95,7.05,7.51,0,*7F
1500829651.71,35442,22.81,74264.8,8.93,7.15,7.73,0,*7B
1500829652.94,35443,22.81,74264.3,8.93,7.37,7.91,0,*76
1500829654.17,35444,22.81,74262.0,8.95,7.27,7.77,0,*7E
1500829655.39,35445,22.81,74262.3,8.93,7.33,7.91,0,*74
1500829656.56,35446,22.81,74262.5,8.95,7.55,8.05,0,*73
1500829657.79,35447,22.81,74260.0,8.93,7.51,7.95,0,*76
1500829658.99,35448,22.81,74262.8,8.93,7.51,8.01,0,*7B
1500829660.22,35449,22.81,74262.0,8.93,7.45,7.95,0,*7D
1500829661.42,35450,22.81,74262.0,8.93,7.59,8.15,0,*7F
1500829662.65,35451,22.81,74262.0,8.93,7.79,8.29,0,*73
1500829663.9,35452,22.81,74260.5,8.93,7.95,8.41,0,*7C
1500829665.11,35453,22.81,74262.0,8.93,7.79,8.27,0,*7F
1500829666.31,35454,22.81,74256.8,8.95,7.73,8.19,0,*79
1500829667.51,35455,22.81,74260.5,8.95,7.73,8.27,0,*75
1500829668.71,35456,22.81,74262.0,8.95,7.77,8.27,0,*72
1500829669.89,35457,22.81,74260.3,8.95,8.15,8.65,0,*7E
1500829671.12,35458,22.81,74258.3,8.93,8.15,8.59,0,*78
1500829672.3,35459,22.81,74258.0,8.95,8.15,8.61,0,*74
1500829673.47,35460,22.81,74256.8,8.95,8.19,8.65,0,*76
1500829674.68,35461,22.81,74262.8,8.95,8.15,8.55,0,*78
1500829675.93,35462,22.81,74258.0,8.97,7.91,8.37,0,*7E
1500829677.15,35463,22.81,74258.8,8.97,7.69,8.23,0,*7D
1500829678.35,35464,22.81,74256.5,8.95,7.87,8.27,0,*7C
1500829679.55,35465,22.81,74256.3,8.97,7.97,8.45,0,*7A
1500829680.75,35466,22.81,74258.3,8.95,7.77,8.27,0,*71
1500829681.97,35467,22.81,74260.5,8.95,7.83,8.29,0,*75
1500829683.15,35468,22.81,74256.3,8.95,7.55,8.05,0,*7F
1500829684.35,35469,22.81,74256.5,8.95,7.55,7.87,0,*7B
1500829685.55,35470,22.81,74258.3,8.93,7.51,8.01,0,*70
1500829686.78,35471,22.81,74258.5,8.93,7.61,8.15,0,*77
1500829688.0,35472,22.81,74258.0,8.97,7.69,8.19,0,*74
1500829689.22,35473,22.81,74260.3,8.93,7.69,8.15,0,*7D
1500829690.4,35474,22.81,74258.8,8.95,7.51,8.05,0,*76
1500829691.62,35475,22.81,74260.5,8.93,7.45,7.91,0,*76
1500829692.82,35476,22.81,74258.5,8.93,7.37,7.79,0,*76
1500829694.02,35477,22.81,74256.3,8.95,7.61,8.09,0,*7A
1500829695.24,35478,22.81,74258.8,8.93,7.45,7.83,0,*78
1500829696.44,35479,22.81,74260.3,8.95,7.61,8.15,0,*79
1500829697.7,35480,22.81,74256.8,8.93,7.47,7.95,0,*7A
1500829698.92,35481,22.81,74258.5,8.93,7.33,7.73,0,*70
1500829700.12,35482,22.81,74258.8,8.93,7.33,7.79,0,*79
1500829701.3,35483,22.81,74258.8,8.91,7.45,7.79,0,*7B
1500829702.53,35484,22.81,74258.5,8.91,7.15,7.61,0,*70
1500829703.76,35485,22.81,74262.3,8.91,7.23,7.61,0,*74
1500829704.99,35486,22.81,74262.3,8.89,7.29,7.65,0,*70
1500829706.17,35487,22.81,74258.8,8.91,7.37,7.79,0,*7A
1500829707.35,35488,22.81,74260.0,8.91,7.51,8.05,0,*71
1500829708.57,35489,22.81,74256.8,8.89,7.45,7.87,0,*79
1500829709.79,35490,22.81,74258.5,8.89,7.09,7.47,0,*75
1500829710.98,35491,22.81,74258.5,8.89,7.01,7.45,0,*7E
1500829712.21,35492,22.81,74252.8,8.89,7.29,7.69,0,*79
1500829713.44,35493,22.81,74256.3,8.89,7.45,7.87,0,*72
1500829714.68,35494,22.81,74252.0,8.89,7.65,8.13,0,*75
1500829715.91,35495,22.81,74256.5,8.89,7.69,8.09,0,*73
1500829717.13,35496,22.81,74258.3,8.89,7.69,8.19,0,*71
1500829718.33,35497,22.81,74256.3,8.89,7.55,7.97,0,*76
1500829719.54,35498,22.81,74254.5,8.89,7.79,8.19,0,*7E
1500829720.77,35499,22.81,74256.3,8.89,7.87,8.27,0,*73
1500829722.01,35500,22.81,74254.5,8.89,7.47,7.87,0,*7B
1500829723.24,35501,22.81,74252.8,8.89,7.23,7.59,0,*7B
1500829724.43,35502,22.81,74256.3,8.89,7.01,7.45,0,*75
1500829725.66,35503,22.81,74250.8,8.87,7.19,7.69,0,*7D
1500829726.89,35504,22.81,74256.3,8.85,7.51,7.95,0,*77
1500829728.07,35505,22.81,74258.5,8.87,7.55,8.01,0,*72
1500829729.26,35506,22.81,74252.3,8.87,7.87,8.23,0,*7E
1500829730.46,35507,22.81,74258.8,8.87,7.65,8.09,0,*7B
1500829731.69,35508,22.81,74252.3,8.87,7.69,8.13,0,*73